sat.trackr.live / text

‹ back to catalog

STARLINK-3175

NORAD 51140 · 2022-005AN

PAYLOAD ACTIVE UNKNOWN

§ Identity

Operator
Country
US
Launch date
2022-01-19
Launch site
AFETR
Launch vehicle
Mass (kg)
RCS (m²)

Purposes: comms

External: N2YO · Heavens-Above · Gunter

§ Orbital elements

Epoch: 2026-09-19T22:24:21.572064Z

Period
94.01 min
Inclination
53.1592°
Eccentricity
0.0001259
Mean motion
15.31703737 rev/d
Perigee alt
469.9 km
Apogee alt
471.6 km
Semi-major
6,848.9 km
B*
3.5261e-5
RAAN
132.4266°
Arg perigee
93.6810°
Mean anomaly
266.4335°
Rev number
25,826

§ Raw data

STARLINK-31751 51140U 22005AN  26262.93358301  .00000729  00000+0  35261-4 0  99982 51140  53.1592 132.4266 0001259  93.6810 266.4335 15.31703737258265

JSON: /api/v1/satellites/51140 · /tle

For live sub-satellite position, see the globe view (requires WebGL).

§ Visibility from observer

Set your observer location to see the next 7 days of passes ≥ 10°. The values pass through the URL so the page stays shareable.

No JS? Fill the form by hand. The geolocation button needs JavaScript.